Flag for Myanmar Weather past 2 weeks in Yangon, Myanmar

Now
77 °F

Mostly cloudy.


Feels Like: 78 °F
Forecast: 76 / 80 °F
Wind: 8 mph from Southwest

Location: Rangoon Airport

Current Time: Aug 29, 2014 at 8:50:08 PM

Latest Report: Aug 29, 2014 at 8:30 PM


Visibility: 4 mi

Pressure: 29.77 "Hg

Humidity: 89%

Dew point: 73 °F

Location of YangonLocation

Historic Weather in Yangon — Graph

°F

Yangon temperature yesterday

Maximum temperature yesterday: 86 °F (at 4:00 PM)
Minimum temperature yesterday: 77 °F (at 5:00 AM)
Average temperature yesterday: 80 °F

Past Weeks' High & Low Weather Summary

 TemperatureHumidityPressure
High91 °F (Aug 24, 2:30 PM)100% (Aug 14, 9:00 PM)32.26 "Hg (Aug 14, 9:00 PM)
Low75 °F (Aug 15, 9:00 PM)59% (Aug 24, 2:30 PM)29.62 "Hg (Aug 27, 4:00 PM)
Average81 °F86%29.79 "Hg
* Reported Aug 14 7:30 PM — Aug 29 7:30 PM, Yangon, Weather by CustomWeather, © 2014

Note: Actual official high and low records may vary slightly from our data, if they occured in-between our weather recording intervals... More about our weather records

Advertising

Yangon weather history for previous 24 hours

 ConditionsComfort  
Time TempWeatherWind HumidityBarometerVisibility
7:30 PM
Aug 29
77 °FMostly cloudy.3 mph89%29.74 "Hg4 mi
7:00 PM77 °FMostly cloudy.5 mph89%29.74 "Hg4 mi
6:30 PM77 °FMostly cloudy.5 mph89%29.74 "Hg4 mi
6:00 PM77 °FMostly cloudy.3 mph89%29.71 "Hg4 mi
5:30 PM79 °FMostly cloudy.5 mph94%29.71 "Hg4 mi
5:00 PM79 °FDrizzle. Mostly cloudy.6 mph94%29.71 "Hg4 mi
4:30 PM79 °FDrizzle. Mostly cloudy.10 mph94%29.71 "Hg4 mi
4:00 PM79 °FDrizzle. Mostly cloudy.3 mph94%29.71 "Hg4 mi
3:30 PM79 °FDrizzle. Mostly cloudy.6 mph94%29.71 "Hg4 mi
3:00 PM79 °FDrizzle. Mostly cloudy.12 mph94%29.71 "Hg4 mi
2:30 PM79 °FMostly cloudy.7 mph94%29.71 "Hg4 mi
2:00 PM81 °FMostly cloudy.7 mph84%29.71 "Hg4 mi
1:30 PM81 °FMostly cloudy.2 mph84%29.71 "Hg4 mi
1:00 PM81 °FMostly cloudy.7 mph84%29.71 "Hg4 mi
12:30 PM81 °FMostly cloudy.7 mph94%29.74 "Hg4 mi
12:00 PM79 °FMostly cloudy.6 mph94%29.77 "Hg4 mi
11:30 AM79 °FDrizzle. Mostly cloudy.5 mph94%29.77 "Hg4 mi
11:00 AM79 °FMostly cloudy.6 mph94%29.77 "Hg4 mi
10:30 AM81 °FMostly cloudy.3 mph94%29.77 "Hg5 mi
10:00 AM81 °FMostly cloudy.7 mph94%29.77 "Hg4 mi
9:30 AM79 °FMostly cloudy.8 mph94%29.77 "Hg4 mi
9:00 AM77 °FLight rain. Mostly cloudy.8 mph100%29.77 "Hg3 mi
8:30 AM77 °FDrizzle. Mostly cloudy.6 mph100%29.77 "Hg4 mi
7:30 AM77 °FDrizzle. Mostly cloudy.7 mph100%29.74 "Hg4 mi
7:00 AM77 °FDrizzle. Mostly cloudy.7 mph100%29.74 "Hg4 mi
6:30 AM77 °FDrizzle. Mostly cloudy.2 mph89%29.71 "Hg4 mi
6:00 AM79 °FDrizzle. Mostly cloudy.3 mph94%29.71 "Hg4 mi
5:30 AM79 °FMostly cloudy.2 mph94%29.71 "Hg4 mi
5:00 AM79 °FPassing clouds.2 mph94%29.71 "Hg4 mi
4:30 AM79 °FPassing clouds.2 mph94%29.71 "Hg4 mi
4:00 AM79 °FPartly cloudy.2 mph94%29.71 "Hg4 mi
1:30 AM79 °FPartly cloudy.1 mph84%29.71 "Hg4 mi
1:00 AM79 °FPartly cloudy.1 mph84%29.74 "Hg4 mi
12:30 AM81 °FPartly cloudy.1 mph84%29.74 "Hg4 mi
12:00 AM81 °FPartly cloudy.1 mph84%29.74 "Hg4 mi
11:00 PM
Aug 28
81 °FPartly cloudy.1 mph84%29.77 "Hg4 mi
10:30 PM81 °FPartly cloudy.1 mph84%29.77 "Hg4 mi
10:00 PM81 °FPartly cloudy.1 mph84%29.77 "Hg4 mi
9:30 PM81 °FPartly cloudy.3 mph84%29.77 "Hg4 mi
9:00 PM81 °FPartly cloudy.1 mph84%29.77 "Hg4 mi
8:30 PM81 °FPartly cloudy.2 mph84%29.74 "Hg4 mi
8:00 PM81 °FPartly cloudy.3 mph84%29.74 "Hg4 mi
Weather by CustomWeather, © 2014

See weather overviewHow to use our weather pages